Home > Weather > Karaganda > Past weeks

Flag for Kazakhstan Weather for the Past 2 Weeks in Karaganda, Kazakhstan

Now
28 °F

Clear.


Feels Like: 28 °F
Forecast: 28 / 62 °F
Wind: 1 mph from North

Location: Karaganda

Current Time: May 6, 2016 at 4:35:04 AM

Latest Report: May 6, 2016 at 4:00 AM


Visibility: 10 mi

Pressure: 30.01 "Hg (27.98 "Hg at 555m altitude)

Humidity: 86%

Dew Point: 25 °F

Location of KaragandaLocation

Historic Weather in Karaganda — Graph

°F

Karaganda Temperature Yesterday

Maximum temperature yesterday: 52 °F (at 4:30 PM)
Minimum temperature yesterday: 37 °F (at 11:30 PM)
Average temperature yesterday: 45 °F

High & Low Weather Summary for the Past Weeks

 TemperatureHumidityPressure
High70 °F (Apr 21, 3:30 PM)94% (Apr 22, 12:00 AM)30.36 "Hg (Apr 22, 12:00 AM)
Low25 °F (Apr 30, 5:30 AM)20% (Apr 26, 6:00 PM)29.86 "Hg (May 5, 5:30 AM)
Average47 °F60%30.05 "Hg
* Reported Apr 21 3:00 AM — May 6 3:30 AM, Karaganda, Weather by CustomWeather, © 2016

Note: Actual official high and low records may vary slightly from our data, if they occured in-between our weather recording intervals... More about our weather records

Advertising

Karaganda Weather History for the Previous 24 Hours

Scroll right to see more
 ConditionsComfort  
Time TempWeatherWind HumidityBarometerVisibility
3:30 AM
Fri, May 6
28 °FClear.No wind86%30.01 "Hg10 mi
3:00 AM28 °FClear.No wind86%29.98 "Hg10 mi
2:30 AM32 °FClear.3 mph80%29.98 "Hg10 mi
2:00 AM32 °FClear.6 mph80%29.98 "Hg10 mi
1:30 AM34 °FClear.6 mph75%29.98 "Hg10 mi
1:00 AM32 °FClear.6 mph80%29.98 "Hg10 mi
12:30 AM32 °FClear.6 mph80%29.98 "Hg10 mi
12:00 AM36 °FClear.3 mph75%29.98 "Hg10 mi
11:30 PM
Thu, May 5
37 °FClear.6 mph75%29.98 "Hg10 mi
11:00 PM39 °FClear.6 mph70%29.98 "Hg10 mi
10:30 PM41 °FClear.3 mph66%29.98 "Hg10 mi
10:00 PM43 °FClear.3 mph61%29.98 "Hg10 mi
9:30 PM45 °FPassing clouds.3 mph57%29.95 "HgN/A
9:00 PM46 °FSunny.3 mph53%29.95 "Hg10 mi
8:30 PM46 °FSunny.1 mph57%29.95 "Hg10 mi
8:00 PM48 °FSunny.1 mph54%29.95 "Hg10 mi
7:30 PM48 °FSunny.3 mph50%29.95 "Hg10 mi
7:00 PM48 °FSunny.8 mph50%29.92 "Hg10 mi
6:30 PM48 °FSunny.13 mph46%29.92 "Hg10 mi
6:00 PM50 °FPartly sunny.10 mph43%29.92 "HgN/A
5:30 PM50 °FPartly sunny.10 mph40%29.89 "HgN/A
5:00 PM50 °FPartly sunny.10 mph43%29.89 "HgN/A
4:30 PM52 °FPartly sunny.15 mph38%29.89 "HgN/A
4:00 PM50 °FPartly sunny.17 mph47%29.89 "HgN/A
3:30 PM50 °FPartly sunny.15 mph43%29.86 "HgN/A
3:00 PM50 °FMostly cloudy.13 mph50%29.86 "HgN/A
2:30 PM48 °FMostly cloudy.15 mph58%29.86 "HgN/A
2:00 PM48 °FMostly cloudy.15 mph54%29.86 "HgN/A
1:30 PM48 °FMostly cloudy.15 mph50%29.86 "HgN/A
1:00 PM46 °FSprinkles. Mostly cloudy.13 mph62%29.86 "HgN/A
12:30 PM48 °FOvercast.8 mph54%29.86 "HgN/A
12:00 PM46 °FOvercast.6 mph53%29.86 "HgN/A
11:30 AM46 °FOvercast.6 mph57%29.86 "HgN/A
11:00 AM46 °FOvercast.8 mph53%29.86 "HgN/A
10:30 AM45 °FOvercast.10 mph61%29.86 "HgN/A
10:00 AM45 °FOvercast.10 mph61%29.86 "HgN/A
9:30 AM43 °FOvercast.8 mph71%29.86 "HgN/A
9:00 AM43 °FLight rain. Overcast.6 mph76%29.86 "HgN/A
8:30 AM41 °FLight rain. Mostly cloudy.6 mph76%29.86 "HgN/A
8:00 AM41 °FLight rain. Mostly cloudy.6 mph81%29.86 "HgN/A
7:30 AM41 °FLight rain. Mostly cloudy.6 mph81%29.86 "HgN/A
7:00 AM39 °FLight rain. Mostly cloudy.6 mph81%29.86 "HgN/A
6:30 AM39 °FLight rain. Mostly cloudy.8 mph81%29.86 "HgN/A
6:00 AM39 °FLight rain. Mostly cloudy.8 mph81%29.86 "HgN/A
5:30 AM39 °FLight rain. Mostly cloudy.8 mph81%29.86 "HgN/A
5:00 AM41 °FSprinkles. Overcast.6 mph76%29.89 "HgN/A
4:30 AM41 °FSprinkles. Overcast.6 mph66%29.89 "HgN/A
4:00 AM41 °FSprinkles. Overcast.1 mph70%29.89 "HgN/A
Weather by CustomWeather, © 2016

See weather overviewHow to use our weather pages